FW6822 Weather Reports


time (UTC)temp
F
wind
direction
speed
knots
gust
knots
rain 1hr
in
rain 24hr
in
rain mn
in
humidity
%
barometer
mb
20260503180024 57 29 0.9 7.8 0.00 0.09 0.07 39 1008.6
20260503174513 57 343 3.5 7.0 0.00 0.12 0.07 35 1008.5
20260503173010 57 20 1.7 7.0 0.00 0.12 0.07 32 1008.5
20260503171603 57 321 1.7 7.8 0.00 0.12 0.07 33 1008.4
20260503081527 51 22 4.3 10.4 0.00 0.14 0.06 1 1008.4
20260503071507 51 43 3.5 7.8 0.02 0.14 0.06 1 1008.2
20260503060103 51 60 3.5 7.0 0.02 0.11 0.03 1 1007.7
20260503054541 51 43 1.7 5.2 0.02 0.11 0.03 1 1007.6
20260503053041 51 60 2.6 5.2 0.03 0.11 0.03 1 1007.5
20260503051532 51 65 2.6 5.2 0.01 0.09 0.01 1 1007.5
20260503050029 51 75 2.6 4.3 0.01 0.09 0.01 1 1007.5
20260503044528 51 74 2.6 5.2 0.01 0.09 0.01 1 1007.6
20260503043019 51 81 1.7 6.1 0.00 0.08 0.00 1 1007.6
20260503041515 51 76 5.2 7.8 0.00 0.08 0.00 1 1007.7
20260503040010 51 88 2.6 7.8 0.00 0.08 0.00 1 1007.7
20260503034506 51 112 4.3 7.0 0.00 0.08 0.00 1 1007.7
20260503033003 52 74 2.6 7.0 0.00 0.08 0.00 1 1007.7
20260503031605 52 63 2.6 7.0 0.00 0.08 0.00 1 1007.6
20260503030056 52 55 5.2 7.0 0.00 0.08 0.00 1 1007.6
20260503024553 52 14 1.7 3.5 0.00 0.08 0.00 1 1007.6
20260503023056 52 49 1.7 4.3 0.00 0.08 0.00 1 1007.7
20260503021545 52 89 0.9 6.1 0.00 0.08 0.00 1 1007.8
20260503020036 52 75 3.5 5.2 0.00 0.08 0.00 1 1007.9
20260503014532 52 57 4.3 6.1 0.00 0.08 0.00 1 1008.0
20260503013027 52 61 1.7 4.3 0.00 0.08 0.00 1 1008.1
20260503011523 52 67 1.7 4.3 0.00 0.08 0.00 1 1008.2
20260503010029 52 61 2.6 5.2 0.00 0.08 0.00 1 1008.3
20260503004515 52 61 1.7 3.5 0.00 0.08 0.00 1 1008.4
20260503003010 52 72 2.6 3.5 0.00 0.08 0.00 1 1008.4
20260503001506 52 76 1.7 4.3 0.00 0.08 0.00 1 1008.6
20260503000002 52 96 1.7 3.5 0.00 0.08 0.00 1 1008.6
20260502234558 52 90 1.7 5.2 0.00 0.08 0.00 1 1008.7
20260502233056 52 103 1.7 6.1 0.00 0.08 0.00 1 1008.8
20260502231549 52 87 2.6 7.0 0.00 0.08 0.00 1 1008.8
20260502230045 52 108 5.2 7.0 0.00 0.08 0.00 1 1008.8
20260502224540 52 116 3.5 6.1 0.01 0.08 0.08 1 1008.9
20260502223035 52 102 5.2 8.7 0.01 0.08 0.08 1 1008.9
20260502221532 52 122 2.6 7.0 0.01 0.08 0.08 1 1009.0
20260502220030 52 130 1.7 7.0 0.01 0.08 0.08 1 1009.0
20260502214522 52 132 3.5 7.0 0.00 0.07 0.07 1 1009.0
20260502213020 52 123 3.5 6.1 0.00 0.07 0.07 1 1009.0
20260502211514 52 131 2.6 9.6 0.00 0.07 0.07 1 1009.0
20260502210009 52 128 5.2 7.8 0.00 0.07 0.07 1 1009.0
20260502204514 52 97 2.6 7.0 0.00 0.07 0.07 1 1009.0
20260502203100 53 132 2.6 5.2 0.00 0.07 0.07 1 1009.1
20260502201559 53 97 2.6 7.0 0.00 0.07 0.07 1 1009.0
20260502200056 52 94 5.2 9.6 0.01 0.07 0.07 1 1009.1
20260502194548 52 121 3.5 8.7 0.01 0.07 0.07 1 1009.0
20260502193046 52 101 7.0 10.4 0.01 0.07 0.07 1 1009.1
20260502191539 52 103 7.0 10.4 0.01 0.07 0.07 1 1009.1
20260502190036 52 104 2.6 7.0 0.00 0.06 0.06 1 1009.0
20260502184536 52 75 2.6 7.8 0.00 0.06 0.06 1 1009.0
20260502183026 52 85 2.6 5.2 0.01 0.06 0.06 1 1009.1
20260502181522 52 66 2.6 7.8 0.03 0.06 0.06 1 1009.2